K6PKL-2 Weather Reports


Display with metric or nautical units.
time (UTC)temp
F
wind
direction
speed
MPH
gust
MPH
rain 1hr
in
rain 24hr
in
rain mn
in
humidity
%
barometer
mb
20260905035943 73 310 3.0 5.0 0.00 0.00 0.00 53 1018.7
20260905035542 73 308 3.0 6.0 0.00 0.00 0.00 53 1018.6
20260905035142 73 172 2.0 7.0 0.00 0.00 0.00 52 1018.6
20260905034742 73 9 2.0 6.0 0.00 0.00 0.00 51 1018.5
20260905034342 74 339 3.0 7.0 0.00 0.00 0.00 51 1018.5
20260905033942 74 45 1.0 6.0 0.00 0.00 0.00 50 1018.4
20260905033542 74 261 2.0 7.0 0.00 0.00 0.00 50 1018.4
20260905033142 75 326 6.0 8.0 0.00 0.00 0.00 49 1018.3
20260905032741 75 216 1.0 7.0 0.00 0.00 0.00 48 1018.3
20260905032341 75 324 5.0 8.0 0.00 0.00 0.00 48 1018.2
20260905031941 76 294 3.0 7.0 0.00 0.00 0.00 47 1018.1
20260905031541 76 258 4.0 5.0 0.00 0.00 0.00 47 1018.1
20260905030741 77 270 1.0 8.0 0.00 0.00 0.00 45 1017.9
20260905030341 77 309 2.0 6.0 0.00 0.00 0.00 44 1018.0
20260905025940 78 337 3.0 5.0 0.00 0.00 0.00 43 1017.9
20260905025541 78 342 3.0 6.0 0.00 0.00 0.00 42 1017.9
20260905024337 79 260 3.0 4.0 0.00 0.00 0.00 40 1017.9
20260905023937 80 272 1.0 3.0 0.00 0.00 0.00 40 1017.7
20260905023537 80 346 1.0 4.0 0.00 0.00 0.00 40 1017.7
20260905023136 80 315 0.0 4.0 0.00 0.00 0.00 39 1017.7
20260905022736 81 315 2.0 4.0 0.00 0.00 0.00 39 1017.7
20260905022336 81 324 4.0 6.0 0.00 0.00 0.00 39 1017.7
20260905021936 81 0 4.0 5.0 0.00 0.00 0.00 39 1017.7
20260905021536 82 15 3.0 3.0 0.00 0.00 0.00 39 1017.7
20260905021136 82 353 1.0 3.0 0.00 0.00 0.00 39 1017.6
20260905020337 83 315 3.0 6.0 0.00 0.00 0.00 39 1017.6
20260905015935 83 348 3.0 4.0 0.00 0.00 0.00 39 1017.5
20260905015535 84 0 2.0 4.0 0.00 0.00 0.00 38 1017.5
20260905015135 84 0 2.0 6.0 0.00 0.00 0.00 38 1017.5
20260905014736 85 2 4.0 4.0 0.00 0.00 0.00 37 1017.4
20260905014335 85 315 0.0 5.0 0.00 0.00 0.00 38 1017.4
20260905013936 85 355 3.0 5.0 0.00 0.00 0.00 38 1017.4
20260905013535 85 357 2.0 7.0 0.00 0.00 0.00 39 1017.5
20260905013134 84 330 4.0 5.0 0.00 0.00 0.00 39 1017.4
20260905012734 84 324 4.0 6.0 0.00 0.00 0.00 40 1017.4
20260905012334 83 9 6.0 6.0 0.00 0.00 0.00 40 1017.5
20260905011934 83 40 0.0 3.0 0.00 0.00 0.00 40 1017.4
20260905011535 83 236 3.0 4.0 0.00 0.00 0.00 40 1017.5
20260905011134 83 272 1.0 4.0 0.00 0.00 0.00 41 1017.5
20260905005534 83 278 3.0 6.0 0.00 0.00 0.00 41 1017.4
20260905004733 82 225 2.0 5.0 0.00 0.00 0.00 41 1017.4
20260905003933 82 101 2.0 5.0 0.00 0.00 0.00 41 1017.4
20260905003532 82 328 1.0 6.0 0.00 0.00 0.00 41 1017.4
20260905003132 82 45 3.0 7.0 0.00 0.00 0.00 41 1017.4
20260905002732 82 18 4.0 5.0 0.00 0.00 0.00 41 1017.4
20260905002332 82 22 1.0 5.0 0.00 0.00 0.00 40 1017.4
20260905001932 82 321 3.0 5.0 0.00 0.00 0.00 41 1017.4
20260905001532 82 330 5.0 7.0 0.00 0.00 0.00 41 1017.4
20260905000333 82 33 0.0 4.0 0.00 0.00 0.00 40 1017.3
20260904235931 82 218 4.0 6.0 0.00 0.00 0.00 39 1017.4
20260904235531 82 220 4.0 4.0 0.00 0.00 0.00 40 1017.4
20260904235131 82 294 4.0 6.0 0.00 0.00 0.00 41 1017.4
20260904234731 82 319 3.0 6.0 0.00 0.00 0.00 41 1017.4
20260904233930 81 0 3.0 4.0 0.00 0.00 0.00 41 1017.4
20260904233530 81 218 3.0 7.0 0.00 0.00 0.00 40 1017.5
20260904233130 81 220 7.0 7.0 0.00 0.00 0.00 40 1017.4
20260904232330 82 337 8.0 8.0 0.00 0.00 0.00 40 1017.4
20260904231930 82 231 3.0 6.0 0.00 0.00 0.00 40 1017.5
20260904231530 82 330 4.0 8.0 0.00 0.00 0.00 41 1017.5
20260904231129 81 2 6.0 6.0 0.00 0.00 0.00 41 1017.5
20260904230729 81 270 2.0 5.0 0.00 0.00 0.00 41 1017.5
20260904230329 81 238 2.0 5.0 0.00 0.00 0.00 41 1017.6
20260904225929 81 315 2.0 7.0 0.00 0.00 0.00 40 1017.6
20260904225529 81 218 6.0 6.0 0.00 0.00 0.00 40 1017.7
20260904225129 81 51 1.0 5.0 0.00 0.00 0.00 41 1017.5
20260904224729 81 123 2.0 6.0 0.00 0.00 0.00 41 1017.6
20260904224328 81 315 6.0 6.0 0.00 0.00 0.00 41 1017.8
20260904223529 81 310 2.0 6.0 0.00 0.00 0.00 41 1017.9
20260904223128 80 240 7.0 7.0 0.00 0.00 0.00 43 1017.9
20260904222728 80 180 0.0 8.0 0.00 0.00 0.00 44 1017.9
20260904222328 80 319 7.0 8.0 0.00 0.00 0.00 44 1018.0
20260904221928 80 9 2.0 2.0 0.00 0.00 0.00 46 1018.0
20260904220727 79 61 0.0 3.0 0.00 0.00 0.00 47 1018.1
20260904220327 79 180 0.0 4.0 0.00 0.00 0.00 47 1018.1
20260904215927 79 243 4.0 7.0 0.00 0.00 0.00 46 1018.1
20260904215527 79 225 6.0 6.0 0.00 0.00 0.00 47 1018.2
20260904215127 79 97 3.0 4.0 0.00 0.00 0.00 49 1018.2
20260904214727 78 225 1.0 5.0 0.00 0.00 0.00 49 1018.1
20260904214326 78 135 3.0 3.0 0.00 0.00 0.00 49 1018.0
20260904213927 78 315 1.0 5.0 0.00 0.00 0.00 48 1018.1
20260904213526 78 249 1.0 7.0 0.00 0.00 0.00 47 1018.1
20260904212726 77 225 3.0 7.0 0.00 0.00 0.00 48 1018.1
20260904211525 77 209 2.0 8.0 0.00 0.00 0.00 50 1018.2
20260904210725 76 229 4.0 4.0 0.00 0.00 0.00 52 1018.2
20260904210325 76 63 0.0 3.0 0.00 0.00 0.00 51 1018.2
20260904205925 76 87 1.0 5.0 0.00 0.00 0.00 51 1018.2
20260904205525 76 270 1.0 8.0 0.00 0.00 0.00 51 1018.2
20260904204724 75 0 2.0 4.0 0.00 0.00 0.00 51 1018.3
20260904204324 75 357 3.0 4.0 0.00 0.00 0.00 51 1018.2
20260904203924 75 67 3.0 5.0 0.00 0.00 0.00 52 1018.3
20260904203524 75 0 2.0 5.0 0.00 0.00 0.00 53 1018.4
20260904203124 75 216 5.0 6.0 0.00 0.00 0.00 53 1018.5
20260904202724 75 215 4.0 7.0 0.00 0.00 0.00 53 1018.5
20260904202323 74 222 3.0 4.0 0.00 0.00 0.00 54 1018.5
20260904201523 74 213 1.0 9.0 0.00 0.00 0.00 55 1018.4
20260904201123 74 225 0.0 3.0 0.00 0.00 0.00 56 1018.4
20260904200723 74 331 3.0 9.0 0.00 0.00 0.00 55 1018.4
20260904200323 74 45 2.0 6.0 0.00 0.00 0.00 55 1018.4
20260904195923 74 348 4.0 5.0 0.00 0.00 0.00 55 1018.5
20260904195522 73 220 4.0 7.0 0.00 0.00 0.00 56 1018.6
20260904195122 73 353 9.0 10.0 0.00 0.00 0.00 55 1018.4
20260904194722 73 218 6.0 7.0 0.00 0.00 0.00 56 1018.5
20260904193922 73 225 3.0 6.0 0.00 0.00 0.00 57 1018.5
20260904193522 72 211 5.0 7.0 0.00 0.00 0.00 55 1018.6
20260904193122 72 290 3.0 3.0 0.00 0.00 0.00 58 1018.5
20260904192721 72 90 0.0 5.0 0.00 0.00 0.00 58 1018.6
20260904192321 72 31 2.0 6.0 0.00 0.00 0.00 58 1018.7
20260904191921 72 49 3.0 6.0 0.00 0.00 0.00 59 1018.7
20260904191521 72 213 3.0 6.0 0.00 0.00 0.00 58 1018.8
20260904191121 72 229 4.0 7.0 0.00 0.00 0.00 58 1018.8
20260904190721 71 6 3.0 3.0 0.00 0.00 0.00 60 1018.9
20260904190321 71 229 2.0 4.0 0.00 0.00 0.00 59 1018.8
20260904185921 71 339 3.0 5.0 0.00 0.00 0.00 60 1019.0
20260904185521 71 227 3.0 6.0 0.00 0.00 0.00 60 1019.0
20260904184720 71 200 3.0 4.0 0.00 0.00 0.00 62 1019.0
20260904184320 70 213 4.0 4.0 0.00 0.00 0.00 62 1019.0
20260904183520 70 2 4.0 6.0 0.00 0.00 0.00 63 1019.0
20260904183120 70 317 3.0 3.0 0.00 0.00 0.00 62 1019.1
20260904182719 70 247 2.0 6.0 0.00 0.00 0.00 63 1019.1
20260904182319 70 12 1.0 3.0 0.00 0.00 0.00 63 1019.1
20260904181919 69 11 1.0 5.0 0.00 0.00 0.00 64 1019.1
20260904181520 69 40 1.0 5.0 0.00 0.00 0.00 62 1019.0
20260904181119 69 54 3.0 5.0 0.00 0.00 0.00 63 1019.0
20260904180719 69 238 5.0 6.0 0.00 0.00 0.00 63 1019.0
20260904180319 69 317 3.0 4.0 0.00 0.00 0.00 65 1019.0
20260904175918 69 315 3.0 7.0 0.00 0.00 0.00 65 1019.1
20260904175518 69 225 2.0 6.0 0.00 0.00 0.00 65 1019.0
20260904175118 68 195 1.0 3.0 0.00 0.00 0.00 65 1019.0
20260904174718 68 330 2.0 5.0 0.00 0.00 0.00 67 1019.0
20260904174319 68 90 3.0 3.0 0.00 0.00 0.00 67 1019.1
20260904173918 68 4 5.0 5.0 0.00 0.00 0.00 68 1019.1
20260904173518 68 351 4.0 6.0 0.00 0.00 0.00 68 1019.1
20260904173117 67 0 3.0 3.0 0.00 0.00 0.00 68 1018.9
20260904172717 67 234 2.0 6.0 0.00 0.00 0.00 69 1019.0
20260904172318 67 315 0.0 4.0 0.00 0.00 0.00 70 1019.0
20260904171917 67 202 3.0 4.0 0.00 0.00 0.00 70 1019.0
20260904171517 67 135 0.0 3.0 0.00 0.00 0.00 71 1018.9
20260904171117 67 315 3.0 4.0 0.00 0.00 0.00 71 1019.1
20260904170717 67 18 3.0 4.0 0.00 0.00 0.00 70 1019.0
20260904170316 67 20 4.0 5.0 0.00 0.00 0.00 71 1019.0
20260904165916 66 67 2.0 4.0 0.00 0.00 0.00 72 1019.0
20260904165516 66 299 2.0 6.0 0.00 0.00 0.00 72 1019.0
20260904165116 66 0 2.0 4.0 0.00 0.00 0.00 73 1018.9
20260904164716 66 238 2.0 3.0 0.00 0.00 0.00 73 1019.0
20260904164316 66 315 1.0 5.0 0.00 0.00 0.00 74 1018.9
20260904163515 66 230 2.0 6.0 0.00 0.00 0.00 74 1018.9
20260904163115 66 225 4.0 7.0 0.00 0.00 0.00 74 1018.8
20260904162715 65 315 0.0 5.0 0.00 0.00 0.00 75 1018.7
20260904162315 65 225 1.0 4.0 0.00 0.00 0.00 75 1018.6
20260904161915 65 222 3.0 4.0 0.00 0.00 0.00 75 1018.7
20260904161515 65 315 2.0 9.0 0.00 0.00 0.00 75 1018.8
20260904161115 65 315 3.0 5.0 0.00 0.00 0.00 75 1018.8
20260904160714 65 270 1.0 7.0 0.00 0.00 0.00 76 1018.7
20260904160314 65 204 4.0 5.0 0.00 0.00 0.00 75 1018.8
20260904155914 64 312 4.0 5.0 0.00 0.00 0.00 76 1018.7
20260904155514 64 288 2.0 6.0 0.00 0.00 0.00 77 1018.6
20260904155114 64 351 4.0 4.0 0.00 0.00 0.00 77 1018.7
20260904154714 64 254 3.0 8.0 0.00 0.00 0.00 78 1018.7
20260904153913 64 267 3.0 6.0 0.00 0.00 0.00 78 1018.7
20260904153113 64 315 0.0 4.0 0.00 0.00 0.00 78 1018.7
20260904152713 64 265 1.0 4.0 0.00 0.00 0.00 78 1018.7
20260904152313 64 225 1.0 5.0 0.00 0.00 0.00 78 1018.6
20260904151513 64 236 3.0 5.0 0.00 0.00 0.00 78 1018.6
20260904151112 64 263 1.0 4.0 0.00 0.00 0.00 78 1018.6
20260904150712 64 270 4.0 4.0 0.00 0.00 0.00 78 1018.6
20260904150313 64 281 3.0 3.0 0.00 0.00 0.00 78 1018.5
20260904145513 64 297 1.0 3.0 0.00 0.00 0.00 78 1018.4
20260904145112 64 270 2.0 4.0 0.00 0.00 0.00 78 1018.4
20260904144712 64 337 1.0 3.0 0.00 0.00 0.00 78 1018.4
20260904144312 64 315 1.0 3.0 0.00 0.00 0.00 79 1018.4
20260904143911 64 357 2.0 3.0 0.00 0.00 0.00 78 1018.3
20260904143511 64 324 2.0 4.0 0.00 0.00 0.00 79 1018.2
20260904143111 64 306 1.0 3.0 0.00 0.00 0.00 79 1018.1
20260904142711 65 270 0.0 3.0 0.00 0.00 0.00 79 1018.1
20260904142311 65 315 1.0 3.0 0.00 0.00 0.00 79 1018.1
20260904141911 65 2 3.0 5.0 0.00 0.00 0.00 78 1018.1
20260904141110 65 279 2.0 4.0 0.00 0.00 0.00 78 1017.9
20260904140310 65 229 1.0 3.0 0.00 0.00 0.00 78 1017.8
20260904135910 65 274 2.0 3.0 0.00 0.00 0.00 78 1017.8
20260904135510 65 310 0.0 3.0 0.00 0.00 0.00 78 1017.8
20260904135110 65 315 0.0 3.0 0.00 0.00 0.00 78 1017.7
20260904134709 65 312 1.0 3.0 0.00 0.00 0.00 78 1017.6
20260904134309 65 225 3.0 3.0 0.00 0.00 0.00 78 1017.5
20260904133909 65 270 2.0 3.0 0.00 0.00 0.00 79 1017.5
20260904133510 65 180 2.0 2.0 0.00 0.00 0.00 79 1017.5
20260904133109 65 283 1.0 5.0 0.00 0.00 0.00 79 1017.5
20260904132709 65 225 1.0 8.0 0.00 0.00 0.00 78 1017.5
20260904132309 65 202 2.0 5.0 0.00 0.00 0.00 79 1017.4
20260904131908 65 222 3.0 4.0 0.00 0.00 0.00 79 1017.5
20260904131108 65 254 2.0 5.0 0.00 0.00 0.00 79 1017.3
20260904130708 65 225 2.0 3.0 0.00 0.00 0.00 79 1017.3
20260904130308 65 270 2.0 4.0 0.00 0.00 0.00 80 1017.3
20260904125908 65 256 1.0 4.0 0.00 0.00 0.00 79 1017.3
20260904125107 65 315 0.0 2.0 0.00 0.00 0.00 80 1017.3
20260904124707 65 315 1.0 3.0 0.00 0.00 0.00 80 1017.3
20260904124307 65 326 1.0 3.0 0.00 0.00 0.00 80 1017.2
20260904123907 65 328 1.0 3.0 0.00 0.00 0.00 80 1017.1
20260904123107 65 312 3.0 4.0 0.00 0.00 0.00 80 1017.2
20260904122707 65 285 3.0 4.0 0.00 0.00 0.00 80 1017.2
20260904122307 65 238 2.0 3.0 0.00 0.00 0.00 80 1017.2
20260904121906 65 315 1.0 4.0 0.00 0.00 0.00 80 1017.1
20260904121106 65 317 3.0 3.0 0.00 0.00 0.00 80 1017.2
20260904120706 65 270 1.0 3.0 0.00 0.00 0.00 79 1017.2
20260904120306 65 263 5.0 5.0 0.00 0.00 0.00 79 1017.2
20260904115906 65 292 1.0 4.0 0.00 0.00 0.00 80 1017.1
20260904115505 65 270 1.0 4.0 0.00 0.00 0.00 79 1017.2
20260904115105 65 218 0.0 5.0 0.00 0.00 0.00 79 1017.1
20260904114706 65 256 2.0 6.0 0.00 0.00 0.00 79 1017.1
20260904114305 65 279 1.0 4.0 0.00 0.00 0.00 79 1017.1
20260904113905 65 247 2.0 6.0 0.00 0.00 0.00 79 1017.0
20260904113506 65 281 1.0 4.0 0.00 0.00 0.00 79 1016.9
20260904113105 65 310 1.0 5.0 0.00 0.00 0.00 78 1017.0
20260904112705 65 270 2.0 5.0 0.00 0.00 0.00 78 1017.1
20260904112306 65 238 5.0 5.0 0.00 0.00 0.00 79 1017.0
20260904111904 65 243 1.0 4.0 0.00 0.00 0.00 78 1017.1
20260904111505 65 281 2.0 6.0 0.00 0.00 0.00 78 1017.0
20260904111104 65 297 1.0 4.0 0.00 0.00 0.00 79 1017.0
20260904110704 66 270 3.0 7.0 0.00 0.00 0.00 78 1017.0
20260904110304 66 202 7.0 7.0 0.00 0.00 0.00 78 1016.9
20260904105904 66 211 3.0 6.0 0.00 0.00 0.00 77 1017.0
20260904105504 66 315 2.0 6.0 0.00 0.00 0.00 78 1016.9
20260904105103 66 247 2.0 4.0 0.00 0.00 0.00 78 1016.9
20260904104303 66 212 3.0 4.0 0.00 0.00 0.00 77 1016.8
20260904103904 66 211 1.0 5.0 0.00 0.00 0.00 77 1016.9
20260904103503 66 262 3.0 5.0 0.00 0.00 0.00 76 1016.9
20260904103103 66 243 5.0 6.0 0.00 0.00 0.00 77 1016.8
20260904102702 66 265 1.0 5.0 0.00 0.00 0.00 77 1016.8
20260904102306 66 274 2.0 4.0 0.00 0.00 0.00 77 1016.8
20260904101902 66 250 4.0 4.0 0.00 0.00 0.00 77 1016.7
20260904101502 66 297 2.0 4.0 0.00 0.00 0.00 77 1016.7
20260904101102 66 252 2.0 4.0 0.00 0.00 0.00 77 1016.6
20260904100702 66 310 2.0 6.0 0.00 0.00 0.00 77 1016.5
20260904100302 66 309 4.0 5.0 0.00 0.00 0.00 77 1016.6
20260904095901 66 300 1.0 5.0 0.00 0.00 0.00 77 1016.5
20260904095501 66 207 5.0 5.0 0.00 0.00 0.00 77 1016.5
20260904095101 66 319 2.0 5.0 0.00 0.00 0.00 77 1016.5
20260904094701 67 317 4.0 4.0 0.00 0.00 0.00 77 1016.5
20260904094301 67 263 2.0 5.0 0.00 0.00 0.00 76 1016.5
20260904093501 67 311 2.0 3.0 0.00 0.00 0.00 76 1016.4
20260904093100 67 292 2.0 5.0 0.00 0.00 0.00 77 1016.4
20260904092702 67 317 1.0 4.0 0.00 0.00 0.00 76 1016.4
20260904092300 67 0 1.0 3.0 0.00 0.00 0.00 77 1016.4
20260904091900 67 315 2.0 3.0 0.00 0.00 0.00 77 1016.5
20260904091500 67 315 1.0 3.0 0.00 0.00 0.00 77 1016.5
20260904091100 67 315 1.0 2.0 0.00 0.00 0.00 77 1016.5
20260904090700 67 290 3.0 5.0 0.00 0.00 0.00 77 1016.5
20260904090259 67 227 1.0 5.0 0.00 0.00 0.00 77 1016.5
20260904085459 67 270 0.0 2.0 0.00 0.00 0.00 77 1016.6
20260904085059 67 315 2.0 3.0 0.00 0.00 0.00 77 1016.6
20260904084659 67 317 1.0 3.0 0.00 0.00 0.00 77 1016.6
20260904084259 67 306 2.0 3.0 0.00 0.00 0.00 77 1016.6
20260904083859 67 261 0.0 3.0 0.00 0.00 0.00 77 1016.6
20260904083458 67 270 1.0 2.0 0.00 0.00 0.00 78 1016.6
20260904083058 67 180 0.0 3.0 0.00 0.00 0.00 78 1016.6
20260904082658 67 308 2.0 3.0 0.00 0.00 0.00 78 1016.6
20260904082258 67 328 2.0 3.0 0.00 0.00 0.00 78 1016.6
20260904081858 67 279 1.0 2.0 0.00 0.00 0.00 78 1016.7
20260904081458 67 315 1.0 3.0 0.00 0.00 0.00 78 1016.7
20260904081058 67 335 1.0 4.0 0.00 0.00 0.00 78 1016.7
20260904080657 67 315 2.0 3.0 0.00 0.00 0.00 78 1016.8
20260904080257 67 0 3.0 4.0 0.00 0.00 0.00 78 1016.7
20260904075857 67 353 2.0 5.0 0.00 0.00 0.00 78 1016.7
20260904075457 67 0 3.0 5.0 0.00 0.00 0.00 78 1016.6
20260904075057 67 346 3.0 5.0 0.00 0.00 0.00 79 1016.7
20260904074657 67 315 3.0 4.0 0.00 0.00 0.00 78 1016.6
20260904074257 67 353 3.0 4.0 0.00 0.00 0.00 78 1016.6
20260904073456 67 15 2.0 4.0 0.00 0.00 0.00 79 1016.7
20260904073056 67 335 4.0 4.0 0.00 0.00 0.00 79 1016.6
20260904072656 67 319 2.0 6.0 0.00 0.00 0.00 79 1016.7
20260904072256 67 310 4.0 9.0 0.00 0.00 0.00 79 1016.6
20260904071856 67 13 4.0 6.0 0.00 0.00 0.00 79 1016.6
20260904071456 68 303 3.0 6.0 0.00 0.00 0.00 79 1016.7
20260904071055 68 337 5.0 6.0 0.00 0.00 0.00 79 1016.8
20260904070655 68 317 8.0 9.0 0.00 0.00 0.00 79 1016.7
20260904065855 69 353 8.0 8.0 0.00 0.00 0.00 79 1016.6
20260904065455 69 357 5.0 9.0 0.00 0.00 0.00 78 1016.5
20260904065055 69 315 5.0 7.0 0.00 0.00 0.00 78 1016.4
20260904064847 71 15 3.0 4.0 0.00 0.00 0.00 75 1016.3
20260904064655 69 319 5.0 7.0 0.00 0.00 0.00 77 1016.4
20260904064255 69 308 4.0 5.0 0.00 0.00 0.00 77 1016.4
20260904063854 70 315 4.0 5.0 0.00 0.00 0.00 77 1016.4
20260904063454 70 0 1.0 3.0 0.00 0.00 0.00 76 1016.3
20260904063054 70 38 2.0 4.0 0.00 0.00 0.00 76 1016.3
20260904062654 70 328 2.0 3.0 0.00 0.00 0.00 76 1016.3
20260904062254 70 42 2.0 3.0 0.00 0.00 0.00 76 1016.2
20260904061854 70 31 2.0 3.0 0.00 0.00 0.00 75 1016.1
20260904061453 70 45 1.0 4.0 0.00 0.00 0.00 75 1016.1
20260904061053 70 67 2.0 4.0 0.00 0.00 0.00 75 1016.2
20260904060654 70 326 0.0 3.0 0.00 0.00 0.00 76 1016.1
20260904060253 70 22 2.0 5.0 0.00 0.00 0.00 75 1016.2
20260904055853 70 2 2.0 4.0 0.00 0.00 0.00 75 1016.1
20260904055453 70 11 3.0 5.0 0.00 0.00 0.00 75 1016.2
20260904055053 70 357 2.0 4.0 0.00 0.00 0.00 75 1016.1
20260904054653 70 348 1.0 3.0 0.00 0.00 0.00 75 1016.1
20260904054253 70 0 1.0 3.0 0.00 0.00 0.00 75 1016.2
20260904053853 70 337 2.0 3.0 0.00 0.00 0.00 75 1016.1
20260904053453 71 355 3.0 4.0 0.00 0.00 0.00 75 1016.3
20260904053053 71 6 2.0 3.0 0.00 0.00 0.00 75 1016.3
20260904052652 71 351 2.0 4.0 0.00 0.00 0.00 75 1016.4
20260904052252 71 15 3.0 4.0 0.00 0.00 0.00 75 1016.3
20260904051852 71 9 3.0 4.0 0.00 0.00 0.00 74 1016.5
20260904051452 71 350 2.0 9.0 0.00 0.00 0.00 74 1016.5
20260904051051 71 303 3.0 5.0 0.00 0.00 0.00 74 1016.4
20260904050651 71 0 3.0 4.0 0.00 0.00 0.00 74 1016.5
20260904050251 72 18 2.0 3.0 0.00 0.00 0.00 73 1016.5
20260904045851 72 315 2.0 5.0 0.00 0.00 0.00 73 1016.5
20260904045451 72 0 3.0 4.0 0.00 0.00 0.00 73 1016.5
20260904045050 72 42 4.0 6.0 0.00 0.00 0.00 72 1016.5
20260904044650 72 40 4.0 6.0 0.00 0.00 0.00 72 1016.4
20260904044250 72 333 6.0 6.0 0.00 0.00 0.00 72 1016.5
20260904043852 72 0 2.0 3.0 0.00 0.00 0.00 72 1016.5
20260904043450 72 58 2.0 5.0 0.00 0.00 0.00 72 1016.5
20260904043050 72 42 4.0 5.0 0.00 0.00 0.00 71 1016.6
20260904042650 72 321 3.0 3.0 0.00 0.00 0.00 71 1016.6
20260904042249 72 0 1.0 5.0 0.00 0.00 0.00 71 1016.5
20260904041850 72 36 4.0 4.0 0.00 0.00 0.00 71 1016.5
20260904041449 72 330 3.0 5.0 0.00 0.00 0.00 71 1016.4
20260904040649 72 13 3.0 8.0 0.00 0.00 0.00 70 1016.3